Location: ???????
(60.4260°N, 46.9069°E)
Time: 07:43:06
(UTC+00:00)

deb Chang Zheng 4 - Pass Details

Date: 30 March 2020
Orbit: 605 x 626 km, 98.6° (Epoch: 29 May)

Event Time Altitude Azimuth Distance (km) Brightness Sun altitude
Rises 00:50:17 0° 18° (NNE) 2,888 7.8 -11.5°
Reaches altitude 10° 00:52:28 10° 19° (NNE) 1,982 6.9 -11.3°
Maximum altitude 00:56:47 84° 108° (ESE) 626 3.6 -10.8°
Drops below altitude 10° 01:01:06 10° 197° (SSW) 1,980 5.7 -10.3°
Enters shadow 01:02:11 - 198° (SSW) 2,430 6.2 -10.2°
